Location: Allens Landing
(37.8284°N, 89.7284°W)
Time: 12:10:27
(UTC+00:00)

Vanguard 2 - Pass Details

Date: 17 December 2025
Orbit: 552 x 2898 km, 32.9° (Epoch: 13 January)

Event Time Altitude Azimuth Distance (km) Brightness Sun altitude
Exits shadow 12:25:37 - 256° (WSW) 2,202 9.4 -8.5°
Reaches altitude 10° 12:26:48 10° 246° (WSW) 1,835 9.1 -8.3°
Maximum altitude 12:29:44 19° 198° (SSW) 1,421 9.0 -7.7°
Drops below altitude 10° 12:33:06 10° 152° (SSE) 2,135 10.7 -7.1°
Sets 12:36:27 0° 135° (SE) 3,341 12.4 -6.5°
